Find Starlink 34817

NORAD ID: 65362 Int'l Des: 2025-190 Owner: SPXS Country: US Constellation: starlink operational
LEOCIRCULAR

实时位置

正在加载3D地球...

关于 Starlink 34817

正在加载描述...

即将过境

Passes for default location (London). Set your location on the main map for personalized predictions.

高度历史

Loading altitude history...

两行轨道根数

1 65362U 25190M 26104.43513163 .00014000 00000-0 48338-3 0 9992
2 65362 53.1616 2.4518 0001481 82.5149 277.6020 15.30236991 35224
Epoch: Apr 14, 2026 • Age: 17 hours

当前状态

高度 475.0 km
速度 7.63 km/s
星下点 8.23°N, 106.01°E
发射日期 Aug 28, 2025
运行时间 0.6 years
类型 internet

技术详情

分类 Payload
质量 575.00 kg
干质量 530.00 kg
总质量 575.00 kg
长度 0.30 m
直径 4.10 m
跨度 29.00 m
形状 Box + pan
制造商 SPXS
平台类型 Starlink V2MO
阶段状态 In Orbit
所有者/国家 SPXS/US

Most Searched